Year,Month,Day,Hour,Minute,Value (Times are PST for insolation in W/m^2)
2010,11,08,00,00,0.00
2010,11,08,00,01,0.00
2010,11,08,00,02,0.00
2010,11,08,00,03,0.00
2010,11,08,00,04,0.00
2010,11,08,00,05,0.00
2010,11,08,00,06,0.00
2010,11,08,00,07,0.00
2010,11,08,00,08,0.00
2010,11,08,00,09,0.00
2010,11,08,00,10,0.00
2010,11,08,00,11,0.00
2010,11,08,00,12,0.00
2010,11,08,00,13,0.00
2010,11,08,00,14,0.00
2010,11,08,00,15,0.00
2010,11,08,00,16,0.00
2010,11,08,00,17,0.00
2010,11,08,00,18,0.00
2010,11,08,00,19,0.00
2010,11,08,00,20,0.00
2010,11,08,00,21,0.00
2010,11,08,00,22,0.00
2010,11,08,00,23,0.00
2010,11,08,00,24,0.00
2010,11,08,00,25,0.00
2010,11,08,00,26,0.00
2010,11,08,00,27,0.00
2010,11,08,00,28,0.00
2010,11,08,00,29,0.00
2010,11,08,00,30,0.00
2010,11,08,00,31,0.00
2010,11,08,00,32,0.00
2010,11,08,00,33,0.00
2010,11,08,00,34,0.00
2010,11,08,00,35,0.00
2010,11,08,00,36,0.00
2010,11,08,00,37,0.00
2010,11,08,00,38,0.00
2010,11,08,00,39,0.00
2010,11,08,00,40,0.00
2010,11,08,00,41,0.00
2010,11,08,00,42,0.00
2010,11,08,00,43,0.00
2010,11,08,00,44,0.00
2010,11,08,00,45,0.00
2010,11,08,00,46,0.00
2010,11,08,00,47,0.00
2010,11,08,00,48,0.00
2010,11,08,00,49,0.00
2010,11,08,00,50,0.00
2010,11,08,00,51,0.00
2010,11,08,00,52,0.00
2010,11,08,00,53,0.00
2010,11,08,00,54,0.00
2010,11,08,00,55,0.00
2010,11,08,00,56,0.00
2010,11,08,00,57,0.00
2010,11,08,00,58,0.00
2010,11,08,00,59,0.00
2010,11,08,01,00,0.00
2010,11,08,01,01,0.00
2010,11,08,01,02,0.00
2010,11,08,01,03,0.00
2010,11,08,01,04,0.00
2010,11,08,01,05,0.00
2010,11,08,01,06,0.00
2010,11,08,01,07,0.00
2010,11,08,01,08,0.00
2010,11,08,01,09,0.00
2010,11,08,01,10,0.00
2010,11,08,01,11,0.00
2010,11,08,01,12,0.00
2010,11,08,01,13,0.00
2010,11,08,01,14,0.00
2010,11,08,01,15,0.00
2010,11,08,01,16,0.00
2010,11,08,01,17,0.00
2010,11,08,01,18,0.00
2010,11,08,01,19,0.00
2010,11,08,01,20,0.00
2010,11,08,01,21,0.00
2010,11,08,01,22,0.00
2010,11,08,01,23,0.00
2010,11,08,01,24,0.00
2010,11,08,01,25,0.00
2010,11,08,01,26,0.00
2010,11,08,01,27,0.00
2010,11,08,01,28,0.00
2010,11,08,01,29,0.00
2010,11,08,01,30,0.00
2010,11,08,01,31,0.00
2010,11,08,01,32,0.00
2010,11,08,01,33,0.00
2010,11,08,01,34,0.00
2010,11,08,01,35,0.00
2010,11,08,01,36,0.00
2010,11,08,01,37,0.00
2010,11,08,01,38,0.00
2010,11,08,01,39,0.00
2010,11,08,01,40,0.00
2010,11,08,01,41,0.00
2010,11,08,01,42,0.00
2010,11,08,01,43,0.00
2010,11,08,01,44,0.00
2010,11,08,01,45,0.00
2010,11,08,01,46,0.00
2010,11,08,01,47,0.00
2010,11,08,01,48,0.00
2010,11,08,01,49,0.00
2010,11,08,01,50,0.00
2010,11,08,01,51,0.00
2010,11,08,01,52,0.00
2010,11,08,01,53,0.00
2010,11,08,01,54,0.00
2010,11,08,01,55,0.00
2010,11,08,01,56,0.00
2010,11,08,01,57,0.00
2010,11,08,01,58,0.00
2010,11,08,01,59,0.00
2010,11,08,02,00,0.00
2010,11,08,02,01,0.00
2010,11,08,02,02,0.00
2010,11,08,02,03,0.00
2010,11,08,02,04,0.00
2010,11,08,02,05,0.00
2010,11,08,02,06,0.00
2010,11,08,02,07,0.00
2010,11,08,02,08,0.00
2010,11,08,02,09,0.00
2010,11,08,02,10,0.00
2010,11,08,02,11,0.00
2010,11,08,02,12,0.00
2010,11,08,02,13,0.00
2010,11,08,02,14,0.00
2010,11,08,02,15,0.00
2010,11,08,02,16,0.00
2010,11,08,02,17,0.00
2010,11,08,02,18,0.00
2010,11,08,02,19,0.00
2010,11,08,02,20,0.00
2010,11,08,02,21,0.00
2010,11,08,02,22,0.00
2010,11,08,02,23,0.00
2010,11,08,02,24,0.00
2010,11,08,02,25,0.00
2010,11,08,02,26,0.00
2010,11,08,02,27,0.00
2010,11,08,02,28,0.00
2010,11,08,02,29,0.00
2010,11,08,02,30,0.00
2010,11,08,02,31,0.00
2010,11,08,02,32,0.00
2010,11,08,02,33,0.00
2010,11,08,02,34,0.00
2010,11,08,02,35,0.00
2010,11,08,02,36,0.00
2010,11,08,02,37,0.00
2010,11,08,02,38,0.00
2010,11,08,02,39,0.00
2010,11,08,02,40,0.00
2010,11,08,02,41,0.00
2010,11,08,02,42,0.00
2010,11,08,02,43,0.00
2010,11,08,02,44,0.00
2010,11,08,02,45,0.00
2010,11,08,02,46,0.00
2010,11,08,02,47,0.00
2010,11,08,02,48,0.00
2010,11,08,02,49,0.00
2010,11,08,02,50,0.00
2010,11,08,02,51,0.00
2010,11,08,02,52,0.00
2010,11,08,02,53,0.00
2010,11,08,02,54,0.00
2010,11,08,02,55,0.00
2010,11,08,02,56,0.00
2010,11,08,02,57,0.00
2010,11,08,02,58,0.00
2010,11,08,02,59,0.00
2010,11,08,03,00,0.00
2010,11,08,03,01,0.00
2010,11,08,03,02,0.00
2010,11,08,03,03,0.00
2010,11,08,03,04,0.00
2010,11,08,03,05,0.00
2010,11,08,03,06,0.00
2010,11,08,03,07,0.00
2010,11,08,03,08,0.00
2010,11,08,03,09,0.00
2010,11,08,03,10,0.00
2010,11,08,03,11,0.00
2010,11,08,03,12,0.00
2010,11,08,03,13,0.00
2010,11,08,03,14,0.00
2010,11,08,03,15,0.00
2010,11,08,03,16,0.00
2010,11,08,03,17,0.00
2010,11,08,03,18,0.00
2010,11,08,03,19,0.00
2010,11,08,03,20,0.00
2010,11,08,03,21,0.00
2010,11,08,03,22,0.00
2010,11,08,03,23,0.00
2010,11,08,03,24,0.00
2010,11,08,03,25,0.00
2010,11,08,03,26,0.00
2010,11,08,03,27,0.00
2010,11,08,03,28,0.00
2010,11,08,03,29,0.00
2010,11,08,03,30,0.00
2010,11,08,03,31,0.00
2010,11,08,03,32,0.00
2010,11,08,03,33,0.00
2010,11,08,03,34,0.00
2010,11,08,03,35,0.00
2010,11,08,03,36,0.00
2010,11,08,03,37,0.00
2010,11,08,03,38,0.00
2010,11,08,03,39,0.00
2010,11,08,03,40,0.00
2010,11,08,03,41,0.00
2010,11,08,03,42,0.00
2010,11,08,03,43,0.00
2010,11,08,03,44,0.00
2010,11,08,03,45,0.00
2010,11,08,03,46,0.00
2010,11,08,03,47,0.00
2010,11,08,03,48,0.00
2010,11,08,03,49,0.00
2010,11,08,03,50,0.00
2010,11,08,03,51,0.00
2010,11,08,03,52,0.00
2010,11,08,03,53,0.00
2010,11,08,03,54,0.00
2010,11,08,03,55,0.00
2010,11,08,03,56,0.00
2010,11,08,03,57,0.00
2010,11,08,03,58,0.00
2010,11,08,03,59,0.00
2010,11,08,04,00,0.00
2010,11,08,04,01,0.00
2010,11,08,04,02,0.00
2010,11,08,04,03,0.00
2010,11,08,04,04,0.00
2010,11,08,04,05,0.00
2010,11,08,04,06,0.00
2010,11,08,04,07,0.00
2010,11,08,04,08,0.00
2010,11,08,04,09,0.00
2010,11,08,04,10,0.00
2010,11,08,04,11,0.00
2010,11,08,04,12,0.00
2010,11,08,04,13,0.00
2010,11,08,04,14,0.00
2010,11,08,04,15,0.00
2010,11,08,04,16,0.00
2010,11,08,04,17,0.00
2010,11,08,04,18,0.00
2010,11,08,04,19,0.00
2010,11,08,04,20,0.00
2010,11,08,04,21,0.00
2010,11,08,04,22,0.00
2010,11,08,04,23,0.00
2010,11,08,04,24,0.00
2010,11,08,04,25,0.00
2010,11,08,04,26,0.00
2010,11,08,04,27,0.00
2010,11,08,04,28,0.00
2010,11,08,04,29,0.00
2010,11,08,04,30,0.00
2010,11,08,04,31,0.00
2010,11,08,04,32,0.00
2010,11,08,04,33,0.00
2010,11,08,04,34,0.00
2010,11,08,04,35,0.00
2010,11,08,04,36,0.00
2010,11,08,04,37,0.00
2010,11,08,04,38,0.00
2010,11,08,04,39,0.00
2010,11,08,04,40,0.00
2010,11,08,04,41,0.00
2010,11,08,04,42,0.00
2010,11,08,04,43,0.00
2010,11,08,04,44,0.00
2010,11,08,04,45,0.00
2010,11,08,04,46,0.00
2010,11,08,04,47,0.00
2010,11,08,04,48,0.00
2010,11,08,04,49,0.00
2010,11,08,04,50,0.00
2010,11,08,04,51,0.00
2010,11,08,04,52,0.00
2010,11,08,04,53,0.00
2010,11,08,04,54,0.00
2010,11,08,04,55,0.00
2010,11,08,04,56,0.00
2010,11,08,04,57,0.00
2010,11,08,04,58,0.00
2010,11,08,04,59,0.00
2010,11,08,05,00,0.00
2010,11,08,05,01,0.00
2010,11,08,05,02,0.00
2010,11,08,05,03,0.00
2010,11,08,05,04,0.00
2010,11,08,05,05,0.00
2010,11,08,05,06,0.00
2010,11,08,05,07,0.00
2010,11,08,05,08,0.00
2010,11,08,05,09,0.00
2010,11,08,05,10,0.00
2010,11,08,05,11,0.00
2010,11,08,05,12,0.00
2010,11,08,05,13,0.00
2010,11,08,05,14,0.00
2010,11,08,05,15,0.00
2010,11,08,05,16,0.00
2010,11,08,05,17,0.00
2010,11,08,05,18,0.00
2010,11,08,05,19,0.00
2010,11,08,05,20,0.00
2010,11,08,05,21,0.00
2010,11,08,05,22,0.00
2010,11,08,05,23,0.00
2010,11,08,05,24,0.00
2010,11,08,05,25,0.00
2010,11,08,05,26,0.00
2010,11,08,05,27,0.00
2010,11,08,05,28,0.00
2010,11,08,05,29,0.00
2010,11,08,05,30,0.00
2010,11,08,05,31,0.00
2010,11,08,05,32,0.00
2010,11,08,05,33,0.00
2010,11,08,05,34,0.00
2010,11,08,05,35,0.00
2010,11,08,05,36,0.00
2010,11,08,05,37,0.00
2010,11,08,05,38,0.00
2010,11,08,05,39,0.00
2010,11,08,05,40,0.00
2010,11,08,05,41,0.00
2010,11,08,05,42,0.00
2010,11,08,05,43,0.00
2010,11,08,05,44,0.00
2010,11,08,05,45,0.00
2010,11,08,05,46,0.00
2010,11,08,05,47,0.00
2010,11,08,05,48,0.00
2010,11,08,05,49,0.00
2010,11,08,05,50,0.00
2010,11,08,05,51,0.00
2010,11,08,05,52,0.00
2010,11,08,05,53,0.00
2010,11,08,05,54,0.00
2010,11,08,05,55,0.00
2010,11,08,05,56,0.00
2010,11,08,05,57,0.00
2010,11,08,05,58,0.00
2010,11,08,05,59,0.00
2010,11,08,06,00,0.00
2010,11,08,06,01,0.00
2010,11,08,06,02,0.00
2010,11,08,06,03,0.00
2010,11,08,06,04,0.00
2010,11,08,06,05,0.00
2010,11,08,06,06,0.00
2010,11,08,06,07,0.00
2010,11,08,06,08,0.00
2010,11,08,06,09,0.00
2010,11,08,06,10,0.00
2010,11,08,06,11,0.00
2010,11,08,06,12,0.00
2010,11,08,06,13,0.00
2010,11,08,06,14,0.00
2010,11,08,06,15,0.00
2010,11,08,06,16,0.00
2010,11,08,06,17,0.00
2010,11,08,06,18,0.00
2010,11,08,06,19,0.00
2010,11,08,06,20,0.00
2010,11,08,06,21,0.00
2010,11,08,06,22,0.00
2010,11,08,06,23,0.00
2010,11,08,06,24,0.00
2010,11,08,06,25,0.00
2010,11,08,06,26,0.00
2010,11,08,06,27,0.00
2010,11,08,06,28,0.00
2010,11,08,06,29,0.00
2010,11,08,06,30,0.00
2010,11,08,06,31,0.00
2010,11,08,06,32,0.00
2010,11,08,06,33,0.00
2010,11,08,06,34,0.00
2010,11,08,06,35,0.00
2010,11,08,06,36,0.00
2010,11,08,06,37,0.00
2010,11,08,06,38,0.00
2010,11,08,06,39,0.00
2010,11,08,06,40,0.00
2010,11,08,06,41,0.00
2010,11,08,06,42,0.00
2010,11,08,06,43,0.00
2010,11,08,06,44,0.00
2010,11,08,06,45,0.00
2010,11,08,06,46,0.00
2010,11,08,06,47,0.00
2010,11,08,06,48,0.00
2010,11,08,06,49,0.00
2010,11,08,06,50,0.00
2010,11,08,06,51,0.00
2010,11,08,06,52,0.00
2010,11,08,06,53,0.00
2010,11,08,06,54,0.00
2010,11,08,06,55,0.00
2010,11,08,06,56,0.00
2010,11,08,06,57,0.00
2010,11,08,06,58,0.00
2010,11,08,06,59,0.00
2010,11,08,07,00,0.00
2010,11,08,07,01,0.00
2010,11,08,07,02,0.00
2010,11,08,07,03,0.00
2010,11,08,07,04,0.00
2010,11,08,07,05,0.00
2010,11,08,07,06,0.00
2010,11,08,07,07,0.00
2010,11,08,07,08,0.00
2010,11,08,07,09,0.00
2010,11,08,07,10,0.00
2010,11,08,07,11,0.00
2010,11,08,07,12,0.00
2010,11,08,07,13,0.00
2010,11,08,07,14,0.00
2010,11,08,07,15,0.00
2010,11,08,07,16,0.00
2010,11,08,07,17,1.50
2010,11,08,07,18,5.00
2010,11,08,07,19,6.20
2010,11,08,07,20,7.00
2010,11,08,07,21,8.80
2010,11,08,07,22,11.00
2010,11,08,07,23,11.30
2010,11,08,07,24,12.00
2010,11,08,07,25,12.00
2010,11,08,07,26,12.00
2010,11,08,07,27,12.00
2010,11,08,07,28,12.00
2010,11,08,07,29,12.70
2010,11,08,07,30,14.00
2010,11,08,07,31,14.00
2010,11,08,07,32,14.00
2010,11,08,07,33,14.00
2010,11,08,07,34,14.00
2010,11,08,07,35,14.00
2010,11,08,07,36,13.00
2010,11,08,07,37,12.00
2010,11,08,07,38,12.00
2010,11,08,07,39,12.00
2010,11,08,07,40,12.00
2010,11,08,07,41,12.00
2010,11,08,07,42,13.10
2010,11,08,07,43,14.00
2010,11,08,07,44,14.00
2010,11,08,07,45,14.00
2010,11,08,07,46,14.00
2010,11,08,07,47,14.00
2010,11,08,07,48,14.00
2010,11,08,07,49,14.00
2010,11,08,07,50,14.00
2010,11,08,07,51,13.60
2010,11,08,07,52,12.00
2010,11,08,07,53,12.00
2010,11,08,07,54,12.00
2010,11,08,07,55,12.00
2010,11,08,07,56,12.00
2010,11,08,07,57,12.00
2010,11,08,07,58,12.00
2010,11,08,07,59,12.00
2010,11,08,08,00,12.00
2010,11,08,08,01,12.00
2010,11,08,08,02,12.00
2010,11,08,08,03,12.00
2010,11,08,08,04,12.00
2010,11,08,08,05,12.00
2010,11,08,08,06,12.00
2010,11,08,08,07,12.00
2010,11,08,08,08,12.10
2010,11,08,08,09,14.00
2010,11,08,08,10,14.00
2010,11,08,08,11,14.00
2010,11,08,08,12,14.00
2010,11,08,08,13,15.60
2010,11,08,08,14,16.00
2010,11,08,08,15,16.50
2010,11,08,08,16,18.40
2010,11,08,08,17,19.00
2010,11,08,08,18,20.30
2010,11,08,08,19,21.00
2010,11,08,08,20,23.10
2010,11,08,08,21,25.00
2010,11,08,08,22,25.40
2010,11,08,08,23,27.10
2010,11,08,08,24,29.40
2010,11,08,08,25,31.70
2010,11,08,08,26,35.60
2010,11,08,08,27,39.90
2010,11,08,08,28,43.80
2010,11,08,08,29,47.70
2010,11,08,08,30,50.40
2010,11,08,08,31,53.50
2010,11,08,08,32,56.00
2010,11,08,08,33,56.00
2010,11,08,08,34,56.00
2010,11,08,08,35,56.00
2010,11,08,08,36,56.00
2010,11,08,08,37,57.80
2010,11,08,08,38,58.60
2010,11,08,08,39,62.90
2010,11,08,08,40,67.50
2010,11,08,08,41,76.90
2010,11,08,08,42,75.80
2010,11,08,08,43,75.80
2010,11,08,08,44,76.00
2010,11,08,08,45,75.30
2010,11,08,08,46,73.00
2010,11,08,08,47,70.10
2010,11,08,08,48,69.00
2010,11,08,08,49,68.40
2010,11,08,08,50,63.00
2010,11,08,08,51,61.20
2010,11,08,08,52,55.40
2010,11,08,08,53,53.00
2010,11,08,08,54,55.30
2010,11,08,08,55,50.70
2010,11,08,08,56,45.00
2010,11,08,08,57,41.30
2010,11,08,08,58,40.00
2010,11,08,08,59,40.00
2010,11,08,09,00,40.00
2010,11,08,09,01,41.90
2010,11,08,09,02,42.00
2010,11,08,09,03,42.00
2010,11,08,09,04,42.00
2010,11,08,09,05,42.00
2010,11,08,09,06,42.00
2010,11,08,09,07,42.20
2010,11,08,09,08,42.80
2010,11,08,09,09,38.70
2010,11,08,09,10,37.00
2010,11,08,09,11,37.00
2010,11,08,09,12,37.00
2010,11,08,09,13,39.00
2010,11,08,09,14,39.00
2010,11,08,09,15,39.40
2010,11,08,09,16,39.40
2010,11,08,09,17,37.50
2010,11,08,09,18,37.00
2010,11,08,09,19,37.00
2010,11,08,09,20,37.60
2010,11,08,09,21,40.30
2010,11,08,09,22,43.20
2010,11,08,09,23,46.20
2010,11,08,09,24,52.50
2010,11,08,09,25,56.40
2010,11,08,09,26,58.00
2010,11,08,09,27,58.90
2010,11,08,09,28,60.00
2010,11,08,09,29,60.00
2010,11,08,09,30,61.80
2010,11,08,09,31,61.60
2010,11,08,09,32,60.00
2010,11,08,09,33,59.00
2010,11,08,09,34,59.40
2010,11,08,09,35,62.40
2010,11,08,09,36,63.00
2010,11,08,09,37,63.50
2010,11,08,09,38,65.00
2010,11,08,09,39,66.10
2010,11,08,09,40,68.40
2010,11,08,09,41,65.60
2010,11,08,09,42,61.80
2010,11,08,09,43,59.50
2010,11,08,09,44,58.00
2010,11,08,09,45,59.10
2010,11,08,09,46,62.10
2010,11,08,09,47,64.70
2010,11,08,09,48,62.00
2010,11,08,09,49,63.80
2010,11,08,09,50,65.40
2010,11,08,09,51,57.80
2010,11,08,09,52,56.00
2010,11,08,09,53,59.40
2010,11,08,09,54,62.20
2010,11,08,09,55,64.20
2010,11,08,09,56,72.70
2010,11,08,09,57,77.20
2010,11,08,09,58,70.80
2010,11,08,09,59,62.80
2010,11,08,10,00,63.00
2010,11,08,10,01,63.00
2010,11,08,10,02,62.50
2010,11,08,10,03,60.80
2010,11,08,10,04,60.00
2010,11,08,10,05,60.00
2010,11,08,10,06,60.40
2010,11,08,10,07,62.30
2010,11,08,10,08,63.00
2010,11,08,10,09,63.00
2010,11,08,10,10,63.00
2010,11,08,10,11,66.80
2010,11,08,10,12,69.20
2010,11,08,10,13,70.80
2010,11,08,10,14,70.90
2010,11,08,10,15,69.30
2010,11,08,10,16,69.80
2010,11,08,10,17,80.20
2010,11,08,10,18,83.80
2010,11,08,10,19,114.40
2010,11,08,10,20,161.10
2010,11,08,10,21,115.70
2010,11,08,10,22,71.10
2010,11,08,10,23,66.80
2010,11,08,10,24,65.50
2010,11,08,10,25,67.00
2010,11,08,10,26,68.70
2010,11,08,10,27,87.50
2010,11,08,10,28,97.60
2010,11,08,10,29,106.40
2010,11,08,10,30,118.90
2010,11,08,10,31,136.70
2010,11,08,10,32,206.40
2010,11,08,10,33,188.10
2010,11,08,10,34,203.30
2010,11,08,10,35,126.40
2010,11,08,10,36,137.70
2010,11,08,10,37,172.00
2010,11,08,10,38,266.20
2010,11,08,10,39,329.00
2010,11,08,10,40,392.80
2010,11,08,10,41,329.00
2010,11,08,10,42,298.90
2010,11,08,10,43,243.00
2010,11,08,10,44,243.00
2010,11,08,10,45,201.80
2010,11,08,10,46,188.00
2010,11,08,10,47,187.40
2010,11,08,10,48,182.40
2010,11,08,10,49,182.00
2010,11,08,10,50,186.00
2010,11,08,10,51,186.00
2010,11,08,10,52,210.00
2010,11,08,10,53,428.30
2010,11,08,10,54,395.10
2010,11,08,10,55,394.50
2010,11,08,10,56,388.00
2010,11,08,10,57,389.70
2010,11,08,10,58,394.80
2010,11,08,10,59,388.00
2010,11,08,11,00,388.00
2010,11,08,11,01,405.90
2010,11,08,11,02,373.90
2010,11,08,11,03,284.80
2010,11,08,11,04,324.50
2010,11,08,11,05,306.00
2010,11,08,11,06,221.60
2010,11,08,11,07,95.00
2010,11,08,11,08,95.00
2010,11,08,11,09,95.00
2010,11,08,11,10,106.90
2010,11,08,11,11,139.80
2010,11,08,11,12,151.30
2010,11,08,11,13,146.90
2010,11,08,11,14,183.20
2010,11,08,11,15,208.90
2010,11,08,11,16,135.60
2010,11,08,11,17,116.00
2010,11,08,11,18,192.90
2010,11,08,11,19,287.00
2010,11,08,11,20,390.50
2010,11,08,11,21,420.40
2010,11,08,11,22,412.50
2010,11,08,11,23,410.40
2010,11,08,11,24,411.00
2010,11,08,11,25,411.00
2010,11,08,11,26,405.80
2010,11,08,11,27,414.40
2010,11,08,11,28,426.20
2010,11,08,11,29,431.00
2010,11,08,11,30,312.20
2010,11,08,11,31,227.00
2010,11,08,11,32,273.80
2010,11,08,11,33,276.00
2010,11,08,11,34,227.80
2010,11,08,11,35,47.00
2010,11,08,11,36,97.50
2010,11,08,11,37,96.70
2010,11,08,11,38,69.00
2010,11,08,11,39,392.80
2010,11,08,11,40,408.50
2010,11,08,11,41,409.20
2010,11,08,11,42,409.60
2010,11,08,11,43,412.40
2010,11,08,11,44,413.00
2010,11,08,11,45,58.20
2010,11,08,11,46,74.50
2010,11,08,11,47,65.40
2010,11,08,11,48,63.00
2010,11,08,11,49,63.00
2010,11,08,11,50,369.90
2010,11,08,11,51,419.50
2010,11,08,11,52,432.00
2010,11,08,11,53,432.00
2010,11,08,11,54,429.10
2010,11,08,11,55,428.40
2010,11,08,11,56,397.50
2010,11,08,11,57,354.50
2010,11,08,11,58,118.00
2010,11,08,11,59,64.20
2010,11,08,12,00,67.00
2010,11,08,12,01,67.00
2010,11,08,12,02,67.00
2010,11,08,12,03,67.00
2010,11,08,12,04,68.80
2010,11,08,12,05,83.20
2010,11,08,12,06,133.60
2010,11,08,12,07,121.90
2010,11,08,12,08,109.00
2010,11,08,12,09,109.80
2010,11,08,12,10,113.00
2010,11,08,12,11,272.50
2010,11,08,12,12,430.00
2010,11,08,12,13,425.10
2010,11,08,12,14,423.70
2010,11,08,12,15,418.40
2010,11,08,12,16,421.80
2010,11,08,12,17,425.00
2010,11,08,12,18,425.00
2010,11,08,12,19,425.00
2010,11,08,12,20,75.80
2010,11,08,12,21,52.00
2010,11,08,12,22,47.80
2010,11,08,12,23,43.90
2010,11,08,12,24,40.60
2010,11,08,12,25,40.00
2010,11,08,12,26,42.20
2010,11,08,12,27,44.50
2010,11,08,12,28,46.40
2010,11,08,12,29,47.00
2010,11,08,12,30,48.40
2010,11,08,12,31,49.00
2010,11,08,12,32,62.10
2010,11,08,12,33,78.20
2010,11,08,12,34,88.00
2010,11,08,12,35,233.20
2010,11,08,12,36,352.00
2010,11,08,12,37,90.20
2010,11,08,12,38,46.00
2010,11,08,12,39,46.00
2010,11,08,12,40,46.00
2010,11,08,12,41,46.00
2010,11,08,12,42,310.80
2010,11,08,12,43,350.70
2010,11,08,12,44,341.20
2010,11,08,12,45,418.00
2010,11,08,12,46,332.00
2010,11,08,12,47,227.00
2010,11,08,12,48,362.80
2010,11,08,12,49,399.50
2010,11,08,12,50,243.80
2010,11,08,12,51,262.00
2010,11,08,12,52,161.00
2010,11,08,12,53,56.10
2010,11,08,12,54,51.60
2010,11,08,12,55,46.50
2010,11,08,12,56,46.00
2010,11,08,12,57,46.00
2010,11,08,12,58,46.00
2010,11,08,12,59,46.70
2010,11,08,13,00,48.60
2010,11,08,13,01,47.30
2010,11,08,13,02,50.00
2010,11,08,13,03,53.40
2010,11,08,13,04,58.20
2010,11,08,13,05,67.20
2010,11,08,13,06,80.40
2010,11,08,13,07,91.20
2010,11,08,13,08,97.80
2010,11,08,13,09,101.60
2010,11,08,13,10,104.00
2010,11,08,13,11,102.60
2010,11,08,13,12,102.00
2010,11,08,13,13,174.00
2010,11,08,13,14,174.00
2010,11,08,13,15,142.90
2010,11,08,13,16,108.60
2010,11,08,13,17,118.40
2010,11,08,13,18,135.50
2010,11,08,13,19,413.10
2010,11,08,13,20,426.90
2010,11,08,13,21,444.50
2010,11,08,13,22,465.80
2010,11,08,13,23,470.50
2010,11,08,13,24,469.10
2010,11,08,13,25,464.80
2010,11,08,13,26,429.60
2010,11,08,13,27,388.00
2010,11,08,13,28,388.00
2010,11,08,13,29,205.00
2010,11,08,13,30,137.20
2010,11,08,13,31,126.50
2010,11,08,13,32,118.60
2010,11,08,13,33,109.50
2010,11,08,13,34,100.60
2010,11,08,13,35,91.60
2010,11,08,13,36,84.30
2010,11,08,13,37,82.20
2010,11,08,13,38,75.80
2010,11,08,13,39,71.10
2010,11,08,13,40,70.70
2010,11,08,13,41,70.00
2010,11,08,13,42,70.20
2010,11,08,13,43,71.40
2010,11,08,13,44,69.00
2010,11,08,13,45,67.90
2010,11,08,13,46,64.30
2010,11,08,13,47,64.60
2010,11,08,13,48,69.90
2010,11,08,13,49,71.50
2010,11,08,13,50,72.80
2010,11,08,13,51,84.20
2010,11,08,13,52,93.50
2010,11,08,13,53,99.20
2010,11,08,13,54,100.60
2010,11,08,13,55,102.80
2010,11,08,13,56,95.90
2010,11,08,13,57,91.00
2010,11,08,13,58,92.40
2010,11,08,13,59,93.20
2010,11,08,14,00,96.70
2010,11,08,14,01,95.00
2010,11,08,14,02,97.20
2010,11,08,14,03,98.80
2010,11,08,14,04,97.20
2010,11,08,14,05,95.50
2010,11,08,14,06,100.40
2010,11,08,14,07,103.50
2010,11,08,14,08,110.20
2010,11,08,14,09,118.20
2010,11,08,14,10,124.20
2010,11,08,14,11,125.20
2010,11,08,14,12,128.40
2010,11,08,14,13,130.00
2010,11,08,14,14,130.00
2010,11,08,14,15,128.20
2010,11,08,14,16,124.00
2010,11,08,14,17,121.20
2010,11,08,14,18,121.00
2010,11,08,14,19,121.00
2010,11,08,14,20,121.00
2010,11,08,14,21,120.30
2010,11,08,14,22,116.80
2010,11,08,14,23,114.00
2010,11,08,14,24,112.50
2010,11,08,14,25,111.80
2010,11,08,14,26,114.50
2010,11,08,14,27,119.20
2010,11,08,14,28,124.20
2010,11,08,14,29,128.20
2010,11,08,14,30,130.50
2010,11,08,14,31,132.80
2010,11,08,14,32,134.60
2010,11,08,14,33,134.30
2010,11,08,14,34,132.30
2010,11,08,14,35,127.80
2010,11,08,14,36,125.80
2010,11,08,14,37,120.80
2010,11,08,14,38,113.90
2010,11,08,14,39,106.10
2010,11,08,14,40,100.60
2010,11,08,14,41,96.40
2010,11,08,14,42,92.10
2010,11,08,14,43,89.10
2010,11,08,14,44,85.50
2010,11,08,14,45,84.00
2010,11,08,14,46,85.70
2010,11,08,14,47,84.30
2010,11,08,14,48,85.40
2010,11,08,14,49,84.00
2010,11,08,14,50,83.40
2010,11,08,14,51,81.50
2010,11,08,14,52,79.20
2010,11,08,14,53,78.60
2010,11,08,14,54,76.70
2010,11,08,14,55,75.00
2010,11,08,14,56,72.70
2010,11,08,14,57,70.40
2010,11,08,14,58,68.70
2010,11,08,14,59,65.00
2010,11,08,15,00,64.20
2010,11,08,15,01,62.50
2010,11,08,15,02,59.40
2010,11,08,15,03,54.80
2010,11,08,15,04,52.80
2010,11,08,15,05,51.00
2010,11,08,15,06,50.20
2010,11,08,15,07,49.00
2010,11,08,15,08,49.00
2010,11,08,15,09,50.70
2010,11,08,15,10,53.20
2010,11,08,15,11,54.00
2010,11,08,15,12,54.00
2010,11,08,15,13,54.00
2010,11,08,15,14,55.40
2010,11,08,15,15,56.00
2010,11,08,15,16,56.00
2010,11,08,15,17,55.40
2010,11,08,15,18,54.90
2010,11,08,15,19,57.20
2010,11,08,15,20,58.00
2010,11,08,15,21,57.80
2010,11,08,15,22,54.00
2010,11,08,15,23,54.00
2010,11,08,15,24,52.70
2010,11,08,15,25,49.80
2010,11,08,15,26,49.00
2010,11,08,15,27,49.00
2010,11,08,15,28,49.00
2010,11,08,15,29,48.30
2010,11,08,15,30,46.50
2010,11,08,15,31,44.80
2010,11,08,15,32,40.80
2010,11,08,15,33,39.10
2010,11,08,15,34,38.60
2010,11,08,15,35,36.30
2010,11,08,15,36,34.00
2010,11,08,15,37,32.30
2010,11,08,15,38,30.40
2010,11,08,15,39,28.10
2010,11,08,15,40,28.00
2010,11,08,15,41,28.00
2010,11,08,15,42,28.00
2010,11,08,15,43,28.00
2010,11,08,15,44,29.60
2010,11,08,15,45,32.00
2010,11,08,15,46,33.50
2010,11,08,15,47,35.00
2010,11,08,15,48,35.00
2010,11,08,15,49,35.00
2010,11,08,15,50,33.40
2010,11,08,15,51,32.80
2010,11,08,15,52,31.50
2010,11,08,15,53,29.20
2010,11,08,15,54,28.00
2010,11,08,15,55,28.00
2010,11,08,15,56,26.30
2010,11,08,15,57,26.00
2010,11,08,15,58,25.70
2010,11,08,15,59,24.10
2010,11,08,16,00,21.80
2010,11,08,16,01,19.60
2010,11,08,16,02,18.10
2010,11,08,16,03,17.60
2010,11,08,16,04,16.00
2010,11,08,16,05,16.00
2010,11,08,16,06,16.00
2010,11,08,16,07,14.50
2010,11,08,16,08,14.00
2010,11,08,16,09,13.60
2010,11,08,16,10,12.00
2010,11,08,16,11,12.00
2010,11,08,16,12,12.00
2010,11,08,16,13,12.00
2010,11,08,16,14,11.90
2010,11,08,16,15,11.20
2010,11,08,16,16,11.60
2010,11,08,16,17,11.00
2010,11,08,16,18,11.00
2010,11,08,16,19,11.00
2010,11,08,16,20,11.00
2010,11,08,16,21,11.00
2010,11,08,16,22,11.00
2010,11,08,16,23,10.00
2010,11,08,16,24,9.00
2010,11,08,16,25,9.00
2010,11,08,16,26,7.10
2010,11,08,16,27,7.00
2010,11,08,16,28,6.20
2010,11,08,16,29,5.00
2010,11,08,16,30,5.00
2010,11,08,16,31,5.00
2010,11,08,16,32,5.00
2010,11,08,16,33,5.00
2010,11,08,16,34,5.00
2010,11,08,16,35,2.20
2010,11,08,16,36,0.00
2010,11,08,16,37,0.00
2010,11,08,16,38,0.00
2010,11,08,16,39,0.00
2010,11,08,16,40,0.00
2010,11,08,16,41,0.00
2010,11,08,16,42,0.00
2010,11,08,16,43,0.00
2010,11,08,16,44,0.00
2010,11,08,16,45,0.00
2010,11,08,16,46,0.00
2010,11,08,16,47,0.00
2010,11,08,16,48,0.00
2010,11,08,16,49,0.00
2010,11,08,16,50,0.00
2010,11,08,16,51,0.00
2010,11,08,16,52,0.00
2010,11,08,16,53,0.00
2010,11,08,16,54,0.00
2010,11,08,16,55,0.00
2010,11,08,16,56,0.00
2010,11,08,16,57,0.00
2010,11,08,16,58,0.00
2010,11,08,16,59,0.00
2010,11,08,17,00,0.00
2010,11,08,17,01,0.00
2010,11,08,17,02,0.00
2010,11,08,17,03,0.00
2010,11,08,17,04,0.00
2010,11,08,17,05,0.00
2010,11,08,17,06,0.00
2010,11,08,17,07,0.00
2010,11,08,17,08,0.00
2010,11,08,17,09,0.00
2010,11,08,17,10,0.00
2010,11,08,17,11,0.00
2010,11,08,17,12,0.00
2010,11,08,17,13,0.00
2010,11,08,17,14,0.00
2010,11,08,17,15,0.00
2010,11,08,17,16,0.00
2010,11,08,17,17,0.00
2010,11,08,17,18,0.00
2010,11,08,17,19,0.00
2010,11,08,17,20,0.00
2010,11,08,17,21,0.00
2010,11,08,17,22,0.00
2010,11,08,17,23,0.00
2010,11,08,17,24,0.00
2010,11,08,17,25,0.00
2010,11,08,17,26,0.00
2010,11,08,17,27,0.00
2010,11,08,17,28,0.00
2010,11,08,17,29,0.00
2010,11,08,17,30,0.00
2010,11,08,17,31,0.00
2010,11,08,17,32,0.00
2010,11,08,17,33,0.00
2010,11,08,17,34,0.00